Location: Oklahoma City
(35.4680°N, 97.5160°W)
Time: 23:31:27
(UTC-05:00)

ISS - Visible Passes

Search period start: 22 October 2014 00:00
Search period end: 01 November 2014 00:00
Orbit: 413 x 416 km, 51.6° (Epoch: 22 October)

Date Brightness Start Highest point End Pass type
(mag) Time Alt. Az. Time Alt. Az. Time Alt. Az.
22 Oct -1.1 20:16:25 10° NNW 20:17:51 17° N 20:17:51 17° N visible
23 Oct -1.1 19:27:55 10° N 19:29:36 13° NNE 19:30:55 11° NE visible
23 Oct -0.2 21:03:22 10° NW 21:03:48 13° NW 21:03:48 13° NW visible
24 Oct -2.5 20:14:19 10° NW 20:16:58 41° N 20:16:58 41° N visible
25 Oct -2.1 19:25:23 10° NNW 19:28:17 27° NE 19:30:15 16° E visible
25 Oct -0.3 21:02:04 10° WNW 21:03:09 17° W 21:03:09 17° W visible
26 Oct -2.6 20:12:32 10° WNW 20:15:48 52° SW 20:16:37 40° S visible
27 Oct -3.4 19:23:14 10° NW 19:26:34 76° NE 19:29:53 10° SE visible
28 Oct -0.4 20:11:31 10° W 20:13:40 16° SW 20:15:50 10° S visible
29 Oct -1.3 19:21:30 10° WNW 19:24:30 31° SW 19:27:28 10° SSE visible
